Location: Unspecified
(0.0000°N, 0.0000°E)
Time: 06:32:49
(UTC+00:00)

deb Explorer IX - Pass Details

Date: 28 November 2019
Orbit: 546 x 1104 km, 38.8° (Epoch: 11 December)

Event Time Altitude Azimuth Distance (km) Brightness Sun altitude
Rises 15:14:53 0° 189° (S) 3,223 ? 35.2°
Reaches altitude 10° 15:20:12 10° 146° (SE) 2,484 ? 34.0°
Maximum altitude 15:20:53 10° 139° (SE) 2,493 ? 33.9°
Drops below altitude 10° 15:21:33 10° 132° (SE) 2,529 ? 33.7°
Sets 15:27:28 0° 92° (E) 3,656 ? 32.4°
